ANZ261 NZCH-YPAD

Flight info

Callsign ANZ261
Flight time N/A
Altitude 36000
Route BAVEM7P VANDA DCT TOMAR DCT 40S159E DCT GEMAC N759 ML H345 DRINA DCT
Aircraft A20N/M-SDE2E3FGHIRWXY/LB1

Departure

Time N/A
Airport Christchurch International Airport (NZCH)

Arrival

Time 2026-05-01 09:09
Airport Adelaide International Airport (YPAD)
Time Latitude Longitude Altitude Speed Heading
2026-05-01 07:23 -38.42117 151.13716 36327 ft 411 kts 288°
2026-05-01 07:24 -38.39623 151.03317 36329 ft 412 kts 288°
2026-05-01 07:24 -38.37949 150.96367 36321 ft 412 kts 288°
2026-05-01 07:25 -38.36261 150.89372 36316 ft 412 kts 288°
2026-05-01 07:25 -38.34583 150.82442 36312 ft 411 kts 288°
2026-05-01 07:26 -38.32909 150.75545 36307 ft 410 kts 288°
2026-05-01 07:26 -38.31225 150.68626 36301 ft 411 kts 288°
2026-05-01 07:27 -38.29536 150.61708 36292 ft 411 kts 288°
2026-05-01 07:27 -38.27840 150.54773 36294 ft 411 kts 288°
2026-05-01 07:28 -38.26143 150.47845 36284 ft 411 kts 288°
2026-05-01 07:28 -38.24437 150.40922 36283 ft 411 kts 288°
2026-05-01 07:29 -38.22862 150.33917 36282 ft 412 kts 284°
2026-05-01 07:29 -38.21876 150.26762 36279 ft 413 kts 278°
2026-05-01 07:30 -38.21262 150.19556 36281 ft 412 kts 278°
2026-05-01 07:30 -38.20656 150.12349 36274 ft 412 kts 278°
2026-05-01 07:31 -38.20044 150.05131 36274 ft 413 kts 278°
2026-05-01 07:32 -38.18491 149.87065 36256 ft 413 kts 278°
2026-05-01 07:33 -38.17545 149.76211 36250 ft 412 kts 278°
2026-05-01 07:33 -38.16590 149.65387 36250 ft 413 kts 278°
2026-05-01 07:34 -38.15624 149.54538 36242 ft 413 kts 278°
2026-05-01 07:35 -38.14974 149.47319 36242 ft 414 kts 278°
2026-05-01 07:35 -38.14318 149.40071 36239 ft 414 kts 278°
2026-05-01 07:36 -38.13659 149.32834 36236 ft 413 kts 279°
2026-05-01 07:36 -38.12997 149.25621 36236 ft 413 kts 279°
2026-05-01 07:37 -38.11993 149.14790 36229 ft 413 kts 279°
2026-05-01 07:37 -38.11316 149.07536 36232 ft 414 kts 279°
2026-05-01 07:38 -38.10637 149.00316 36230 ft 414 kts 279°
2026-05-01 07:39 -38.09610 148.89475 36226 ft 414 kts 279°
2026-05-01 07:39 -38.08573 148.78644 36231 ft 414 kts 279°
2026-05-01 07:40 -38.07871 148.71382 36235 ft 415 kts 279°
2026-05-01 07:40 -38.07172 148.64174 36233 ft 414 kts 278°
2026-05-01 07:41 -38.06464 148.56941 36233 ft 413 kts 278°
2026-05-01 07:42 -38.05397 148.46111 36232 ft 414 kts 278°
2026-05-01 07:42 -38.04678 148.38882 36230 ft 414 kts 278°
2026-05-01 07:43 -38.03954 148.31642 36228 ft 415 kts 279°
2026-05-01 07:43 -38.02858 148.20769 36224 ft 416 kts 279°
2026-05-01 07:44 -38.01386 148.06311 36225 ft 415 kts 279°
2026-05-01 07:45 -38.00637 147.99039 36222 ft 414 kts 279°
2026-05-01 07:45 -37.99894 147.91846 36220 ft 414 kts 279°
2026-05-01 07:46 -37.99144 147.84642 36222 ft 413 kts 279°
2026-05-01 07:47 -37.98013 147.73850 36208 ft 414 kts 279°
2026-05-01 07:47 -37.97250 147.66635 36211 ft 414 kts 279°
2026-05-01 07:48 -37.96097 147.55808 36210 ft 413 kts 279°
2026-05-01 07:48 -37.95327 147.48637 36217 ft 413 kts 279°
2026-05-01 07:49 -37.94166 147.37885 36228 ft 412 kts 278°
2026-05-01 07:50 -37.93385 147.30710 36224 ft 412 kts 279°
2026-05-01 07:50 -37.92207 147.19955 36230 ft 411 kts 279°
2026-05-01 07:51 -37.91419 147.12810 36229 ft 411 kts 279°
2026-05-01 07:52 -37.90223 147.02066 36295 ft 410 kts 279°
2026-05-01 07:52 -37.89425 146.94934 36247 ft 410 kts 279°
2026-05-01 07:53 -37.88225 146.84279 36241 ft 409 kts 279°
2026-05-01 07:53 -37.87418 146.77167 36096 ft 409 kts 279°
2026-05-01 07:54 -37.86605 146.70036 36221 ft 410 kts 279°
2026-05-01 07:55 -37.85376 146.59355 36243 ft 409 kts 279°
2026-05-01 07:56 -37.83320 146.41640 36250 ft 409 kts 279°
2026-05-01 07:57 -37.82066 146.30942 36270 ft 410 kts 280°
2026-05-01 07:58 -37.80394 146.16794 36284 ft 409 kts 280°
2026-05-01 07:59 -37.78689 146.02600 36280 ft 408 kts 280°
2026-05-01 08:00 -37.76127 145.81532 36255 ft 407 kts 280°
2026-05-01 08:01 -37.74397 145.67448 36231 ft 407 kts 280°
2026-05-01 08:02 -37.73087 145.56850 36225 ft 407 kts 280°
2026-05-01 08:03 -37.71793 145.46321 36212 ft 407 kts 279°
2026-05-01 08:03 -37.70808 145.35686 36212 ft 406 kts 278°
2026-05-01 08:04 -37.69504 145.21519 36202 ft 407 kts 279°
2026-05-01 08:05 -37.68521 145.10922 36201 ft 407 kts 279°
2026-05-01 08:06 -37.67524 145.00259 36192 ft 407 kts 279°
2026-05-01 08:07 -37.65995 144.86220 36195 ft 404 kts 284°
2026-05-01 08:08 -37.63614 144.76047 36194 ft 402 kts 291°
2026-05-01 08:09 -37.59808 144.62830 36196 ft 403 kts 291°
2026-05-01 08:09 -37.57882 144.56172 36201 ft 403 kts 291°
2026-05-01 08:10 -37.54038 144.42935 36210 ft 403 kts 291°
2026-05-01 08:11 -37.50178 144.29703 36208 ft 403 kts 292°
2026-05-01 08:12 -37.47280 144.19809 36208 ft 402 kts 292°
2026-05-01 08:13 -37.44367 144.09907 36217 ft 403 kts 292°
2026-05-01 08:13 -37.41444 144.00000 36219 ft 404 kts 292°
2026-05-01 08:14 -37.39486 143.93379 36216 ft 403 kts 292°
2026-05-01 08:14 -37.37561 143.86890 36206 ft 403 kts 292°
2026-05-01 08:15 -37.34622 143.77016 36199 ft 403 kts 292°
2026-05-01 08:16 -37.32655 143.70421 36194 ft 403 kts 292°
2026-05-01 08:16 -37.30684 143.63832 36188 ft 402 kts 292°
2026-05-01 08:17 -37.28729 143.57309 36184 ft 402 kts 292°
2026-05-01 08:17 -37.26761 143.50755 36175 ft 401 kts 293°
2026-05-01 08:18 -37.24784 143.44185 36181 ft 401 kts 293°
2026-05-01 08:19 -37.20851 143.31165 36183 ft 401 kts 294°
2026-05-01 08:19 -37.18872 143.24651 36190 ft 401 kts 294°
2026-05-01 08:20 -37.16872 143.18111 36193 ft 400 kts 294°
2026-05-01 08:20 -37.14893 143.11642 36175 ft 400 kts 294°
2026-05-01 08:21 -37.12893 143.05115 36167 ft 400 kts 294°
2026-05-01 08:21 -37.10900 142.98622 36164 ft 399 kts 294°
2026-05-01 08:22 -37.08925 142.92195 36158 ft 399 kts 294°
2026-05-01 08:22 -37.06927 142.85712 36152 ft 399 kts 294°
2026-05-01 08:23 -37.04930 142.79240 36154 ft 399 kts 294°
2026-05-01 08:23 -37.02927 142.72774 36144 ft 400 kts 294°
2026-05-01 08:24 -37.00927 142.66325 36144 ft 400 kts 294°
2026-05-01 08:24 -36.98912 142.59845 36137 ft 400 kts 294°
2026-05-01 08:25 -36.96890 142.53355 36134 ft 400 kts 294°
2026-05-01 08:25 -36.94882 142.46922 36131 ft 400 kts 294°
2026-05-01 08:26 -36.92857 142.40460 36126 ft 399 kts 294°
2026-05-01 08:26 -36.90841 142.34032 36121 ft 400 kts 294°
2026-05-01 08:27 -36.88806 142.27559 36121 ft 401 kts 294°
2026-05-01 08:27 -36.86778 142.21120 36115 ft 401 kts 294°
2026-05-01 08:28 -36.84748 142.14691 36116 ft 401 kts 294°
2026-05-01 08:28 -36.82699 142.08221 36105 ft 400 kts 294°
2026-05-01 08:29 -36.80659 142.01788 36108 ft 400 kts 294°
2026-05-01 08:29 -36.78608 141.95338 36105 ft 400 kts 294°
2026-05-01 08:30 -36.76565 141.88925 36101 ft 400 kts 294°
2026-05-01 08:30 -36.74513 141.82497 36101 ft 399 kts 294°
2026-05-01 08:31 -36.72451 141.76059 36098 ft 400 kts 294°
2026-05-01 08:31 -36.70387 141.69624 36094 ft 400 kts 294°
2026-05-01 08:32 -36.68332 141.63232 36101 ft 400 kts 294°
2026-05-01 08:32 -36.66255 141.56782 36096 ft 400 kts 294°
2026-05-01 08:33 -36.64191 141.50392 36090 ft 399 kts 294°
2026-05-01 08:33 -36.62117 141.43982 36092 ft 399 kts 294°
2026-05-01 08:34 -36.60049 141.37608 36092 ft 398 kts 294°
2026-05-01 08:34 -36.57985 141.31256 36084 ft 398 kts 295°
2026-05-01 08:35 -36.55913 141.24889 36086 ft 398 kts 295°
2026-05-01 08:35 -36.53846 141.18555 36089 ft 397 kts 295°
2026-05-01 08:36 -36.51762 141.12184 36083 ft 398 kts 295°
2026-05-01 08:36 -36.49694 141.05872 36084 ft 397 kts 295°
2026-05-01 08:37 -36.47615 140.99532 36079 ft 397 kts 295°
2026-05-01 08:37 -36.45534 140.93201 36073 ft 396 kts 295°
2026-05-01 08:38 -36.43453 140.86887 36072 ft 396 kts 295°
2026-05-01 08:38 -36.41338 140.80585 36065 ft 395 kts 297°
2026-05-01 08:39 -36.38828 140.74571 36066 ft 394 kts 302°
2026-05-01 08:39 -36.35821 140.68918 36069 ft 392 kts 308°
2026-05-01 08:40 -36.30808 140.60925 36056 ft 393 kts 309°
2026-05-01 08:40 -36.27458 140.55624 36052 ft 392 kts 309°
2026-05-01 08:41 -36.24085 140.50302 36041 ft 392 kts 309°
2026-05-01 08:41 -36.20724 140.45010 36047 ft 392 kts 309°
2026-05-01 08:42 -36.17372 140.39735 36038 ft 392 kts 308°
2026-05-01 08:42 -36.13989 140.34422 36045 ft 392 kts 309°
2026-05-01 08:43 -36.10669 140.29135 36041 ft 392 kts 307°
2026-05-01 08:43 -36.07717 140.23480 36028 ft 393 kts 301°
2026-05-01 08:44 -36.05267 140.17425 35987 ft 394 kts 296°
2026-05-01 08:44 -36.04157 140.14362 35367 ft 399 kts 296°
2026-05-01 08:44 -36.03022 140.11218 34667 ft 403 kts 296°
2026-05-01 08:45 -36.01879 140.08058 33960 ft 406 kts 296°
2026-05-01 08:45 -36.00735 140.04890 33202 ft 409 kts 296°
2026-05-01 08:45 -35.99574 140.01677 32457 ft 410 kts 296°
2026-05-01 08:45 -35.98423 139.98492 31732 ft 412 kts 296°
2026-05-01 08:46 -35.97256 139.95265 31003 ft 413 kts 296°
2026-05-01 08:46 -35.96082 139.92024 30301 ft 413 kts 296°
2026-05-01 08:46 -35.94934 139.88850 29829 ft 408 kts 296°
2026-05-01 08:46 -35.93786 139.85684 29355 ft 403 kts 296°
2026-05-01 08:47 -35.92655 139.82565 28885 ft 398 kts 296°
2026-05-01 08:47 -35.91519 139.79439 28409 ft 394 kts 296°
2026-05-01 08:47 -35.90410 139.76386 27946 ft 390 kts 296°
2026-05-01 08:47 -35.89308 139.73355 27483 ft 387 kts 296°
2026-05-01 08:48 -35.88217 139.70361 27020 ft 384 kts 296°
2026-05-01 08:48 -35.87115 139.67340 26550 ft 380 kts 296°
2026-05-01 08:48 -35.86030 139.64374 26090 ft 377 kts 296°
2026-05-01 08:48 -35.84958 139.61443 25630 ft 375 kts 296°
2026-05-01 08:49 -35.83897 139.58546 25175 ft 372 kts 296°
2026-05-01 08:49 -35.82840 139.55659 24716 ft 369 kts 296°
2026-05-01 08:49 -35.81788 139.52791 24255 ft 367 kts 296°
2026-05-01 08:49 -35.80756 139.49979 23802 ft 364 kts 296°
2026-05-01 08:50 -35.79715 139.47145 23345 ft 362 kts 296°
2026-05-01 08:50 -35.78692 139.44360 22904 ft 359 kts 296°
2026-05-01 08:50 -35.77659 139.41554 22459 ft 357 kts 296°
2026-05-01 08:50 -35.76638 139.38779 22012 ft 355 kts 297°
2026-05-01 08:51 -35.75634 139.36053 21574 ft 353 kts 297°
2026-05-01 08:51 -35.74622 139.33311 21130 ft 351 kts 297°
2026-05-01 08:51 -35.73616 139.30583 20682 ft 349 kts 297°
2026-05-01 08:51 -35.72620 139.27892 20254 ft 347 kts 297°
2026-05-01 08:52 -35.71627 139.25206 19808 ft 345 kts 297°
2026-05-01 08:52 -35.70641 139.22537 19367 ft 343 kts 297°
2026-05-01 08:52 -35.69653 139.19869 18933 ft 341 kts 298°
2026-05-01 08:52 -35.68687 139.17261 18505 ft 339 kts 298°
2026-05-01 08:53 -35.67714 139.14639 18074 ft 336 kts 298°
2026-05-01 08:53 -35.66743 139.12028 17636 ft 334 kts 298°
2026-05-01 08:53 -35.65757 139.09462 17208 ft 331 kts 302°
2026-05-01 08:53 -35.64542 139.07086 16758 ft 327 kts 309°
2026-05-01 08:54 -35.63102 139.04971 16304 ft 324 kts 315°
2026-05-01 08:54 -35.61543 139.02977 15876 ft 322 kts 316°
2026-05-01 08:54 -35.59992 139.01021 15457 ft 320 kts 316°
2026-05-01 08:54 -35.58446 138.99075 15015 ft 319 kts 316°
2026-05-01 08:55 -35.56895 138.97124 14586 ft 317 kts 316°
2026-05-01 08:55 -35.55367 138.95198 14171 ft 315 kts 316°
2026-05-01 08:55 -35.53838 138.93272 13763 ft 314 kts 317°
2026-05-01 08:55 -35.52327 138.91370 13343 ft 313 kts 317°
2026-05-01 08:56 -35.50809 138.89461 12930 ft 311 kts 317°
2026-05-01 08:56 -35.49309 138.87575 12520 ft 310 kts 317°
2026-05-01 08:56 -35.47797 138.85675 12103 ft 308 kts 316°
2026-05-01 08:56 -35.46310 138.83807 11692 ft 306 kts 316°
2026-05-01 08:57 -35.44832 138.81952 11293 ft 304 kts 316°
2026-05-01 08:57 -35.43355 138.80096 10890 ft 302 kts 316°
2026-05-01 08:57 -35.41914 138.78288 10501 ft 300 kts 316°
2026-05-01 08:57 -35.40461 138.76465 10236 ft 292 kts 316°
2026-05-01 08:58 -35.39083 138.74734 10139 ft 279 kts 316°
2026-05-01 08:58 -35.37748 138.73059 10031 ft 267 kts 317°
2026-05-01 08:58 -35.36449 138.71431 9690 ft 265 kts 317°
2026-05-01 08:58 -35.35176 138.69838 9338 ft 264 kts 317°
2026-05-01 08:59 -35.33886 138.68225 8988 ft 262 kts 317°
2026-05-01 08:59 -35.32621 138.66644 8654 ft 259 kts 317°
2026-05-01 08:59 -35.31363 138.65071 8319 ft 258 kts 317°
2026-05-01 08:59 -35.30113 138.63510 7985 ft 256 kts 317°
2026-05-01 09:00 -35.28882 138.61974 7656 ft 254 kts 317°
2026-05-01 09:00 -35.27640 138.60422 7319 ft 252 kts 317°
2026-05-01 09:00 -35.26424 138.58903 7001 ft 251 kts 317°
2026-05-01 09:00 -35.25215 138.57396 6677 ft 249 kts 317°
2026-05-01 09:01 -35.24007 138.55891 6358 ft 248 kts 317°
2026-05-01 09:01 -35.22809 138.54398 6084 ft 243 kts 317°
2026-05-01 09:01 -35.21632 138.52930 5914 ft 234 kts 317°
2026-05-01 09:01 -35.20512 138.51531 5810 ft 224 kts 318°
2026-05-01 09:02 -35.19411 138.50165 5602 ft 229 kts 318°
2026-05-01 09:02 -35.18293 138.48775 5292 ft 228 kts 318°
2026-05-01 09:02 -35.17195 138.47412 4990 ft 227 kts 318°
2026-05-01 09:02 -35.16092 138.46043 4692 ft 226 kts 319°
2026-05-01 09:03 -35.14983 138.44675 4408 ft 225 kts 320°
2026-05-01 09:03 -35.13812 138.43420 4119 ft 222 kts 325°
2026-05-01 09:03 -35.12587 138.42308 3826 ft 221 kts 327°
2026-05-01 09:03 -35.11344 138.41203 3544 ft 220 kts 328°
2026-05-01 09:04 -35.10113 138.40108 3350 ft 213 kts 328°
2026-05-01 09:04 -35.08954 138.39076 3331 ft 198 kts 328°
2026-05-01 09:04 -35.07880 138.38119 3306 ft 187 kts 329°
2026-05-01 09:04 -35.06829 138.37331 3252 ft 170 kts 345°
2026-05-01 09:05 -35.05724 138.37521 3036 ft 160 kts 27°
2026-05-01 09:05 -35.04979 138.38461 2998 ft 147 kts 44°
2026-05-01 09:05 -35.04352 138.39398 3017 ft 143 kts 42°
2026-05-01 09:05 -35.03710 138.40326 3006 ft 142 kts 41°
2026-05-01 09:06 -35.03065 138.41258 2990 ft 140 kts 42°
2026-05-01 09:06 -35.02455 138.42148 2709 ft 137 kts 42°
2026-05-01 09:06 -35.01836 138.43048 2267 ft 140 kts 43°
2026-05-01 09:06 -35.01218 138.43945 1851 ft 140 kts 43°
2026-05-01 09:07 -35.00601 138.44842 1564 ft 139 kts 43°
2026-05-01 09:07 -34.99977 138.45750 1339 ft 139 kts 44°
2026-05-01 09:07 -34.99353 138.46657 1125 ft 139 kts 44°
2026-05-01 09:07 -34.98734 138.47556 951 ft 138 kts 45°
2026-05-01 09:08 -34.98120 138.48448 767 ft 138 kts 45°
2026-05-01 09:08 -34.97497 138.49350 581 ft 137 kts 45°
2026-05-01 09:08 -34.96876 138.50224 413 ft 137 kts 46°
2026-05-01 09:08 -34.96264 138.51119 204 ft 136 kts 46°
2026-05-01 09:09 -34.95658 138.52000 45 ft 134 kts 49°
2026-05-01 09:09 -34.95132 138.52766 33 ft 97 kts 51°
2026-05-01 09:09 -34.94792 138.53264 34 ft 59 kts 50°
2026-05-01 09:09 -34.94641 138.53484 37 ft 17 kts 49°
2026-05-01 09:10 -34.94579 138.53519 37 ft 10 kts 338°
2026-05-01 09:10 -34.94535 138.53461 37 ft 7 kts 307°
2026-05-01 09:10 -34.94518 138.53435 37 ft 0 kts 308°
2026-05-01 09:11 -34.94514 138.53429 37 ft 3 kts 309°
2026-05-01 09:11 -34.94495 138.53406 37 ft 4 kts 330°
2026-05-01 09:11 -34.94463 138.53410 37 ft 5 kts 31°
2026-05-01 09:11 -34.94436 138.53447 37 ft 6 kts 50°
2026-05-01 09:12 -34.94404 138.53493 37 ft 7 kts 49°
2026-05-01 09:12 -34.94367 138.53545 37 ft 8 kts 49°
2026-05-01 09:12 -34.94326 138.53604 37 ft 9 kts 49°
2026-05-01 09:12 -34.94284 138.53661 38 ft 7 kts 31°
2026-05-01 09:13 -34.94237 138.53651 39 ft 7 kts 327°
2026-05-01 09:13 -34.94189 138.53645 40 ft 6 kts 26°
2026-05-01 09:13 -34.94156 138.53683 40 ft 6 kts 48°
2026-05-01 09:13 -34.94120 138.53722 40 ft 6 kts
2026-05-01 09:14 -34.94082 138.53687 40 ft 5 kts 318°
2026-05-01 09:14 -34.94056 138.53659 40 ft 1 kts 320°